Home > Weather > Bremerhaven > Past weeks

Flag for Germany Past Weather in Bremerhaven, Bremen, Germany — Yesterday and Last 2 Weeks

Now
57 °F

Passing clouds.


Feels Like: 55 °F
Forecast: 56 / 69 °F
Wind: 8 mph from Northwest

Location: Nordholz

Current Time: Aug 30, 2016 at 1:36:18 AM

Latest Report: Aug 30, 2016 at 12:20 AM


Visibility: N/A

Pressure: 30.21 "Hg

Humidity: 82%

Dew Point: 52 °F

Location of BremerhavenLocation

Past Weather in Bremerhaven — Graph

°F

Bremerhaven Temperature Yesterday

Maximum temperature yesterday: 66 °F (at 2:20 PM)
Minimum temperature yesterday: 59 °F (at 9:20 PM)
Average temperature yesterday: 63 °F

High & Low Weather Summary for the Past Weeks

 TemperatureHumidityPressure
High88 °F (Aug 25, 4:20 PM)100% (Aug 16, 6:20 AM)30.30 "Hg (Aug 16, 6:20 AM)
Low50 °F (Aug 17, 6:20 AM)38% (Aug 25, 5:20 PM)29.77 "Hg (Aug 20, 5:20 AM)
Average65 °F78%30.05 "Hg
* Reported Aug 15 12:20 AM — Aug 30 12:20 AM, Bremerhaven, Weather by CustomWeather, © 2016

Note: Actual official high and low records may vary slightly from our data, if they occured in-between our weather recording intervals... More about our weather records

Advertising

Bremerhaven Weather History for the Previous 24 Hours

Scroll right to see more
 ConditionsComfort  
Time TempWeatherWind HumidityBarometerVisibility
12:20 AM
Tue, Aug 30
57 °FPassing clouds.8 mph82%30.21 "HgN/A
11:20 PM
Mon, Aug 29
59 °FPassing clouds.8 mph77%30.18 "HgN/A
10:20 PM59 °FPassing clouds.8 mph77%30.18 "HgN/A
9:20 PM59 °FPassing clouds.9 mph72%30.15 "HgN/A
8:20 PM61 °FPassing clouds.12 mph72%30.15 "HgN/A
7:20 PM63 °FScattered clouds.15 mph68%30.12 "HgN/A
6:20 PM64 °FScattered clouds.17 mph64%30.12 "HgN/A
5:20 PM64 °FScattered clouds.20 mph68%30.12 "HgN/A
4:20 PM64 °FScattered clouds.17 mph64%30.09 "HgN/A
3:20 PM64 °FSprinkles. Partly sunny.16 mph64%30.07 "HgN/A
2:20 PM66 °FBroken clouds.20 mph64%30.07 "HgN/A
1:20 PM64 °FBroken clouds.16 mph78%30.04 "HgN/A
12:20 PM64 °FBroken clouds.16 mph73%30.01 "HgN/A
11:20 AM64 °FScattered clouds.16 mph73%30.01 "HgN/A
10:20 AM64 °FPartly sunny.15 mph73%29.98 "HgN/A
9:20 AM63 °FRain showers. Partly sunny.13 mph83%29.95 "HgN/A
8:20 AM63 °FPartly sunny.12 mph83%29.92 "HgN/A
7:20 AM63 °FPartly cloudy.8 mph88%29.89 "HgN/A
6:20 AM61 °FSprinkles. Partly cloudy.8 mph94%29.89 "HgN/A
5:20 AM64 °FPassing clouds.13 mph83%29.86 "HgN/A
4:20 AM64 °FPassing clouds.15 mph88%29.86 "HgN/A
3:20 AM64 °FPassing clouds.16 mph88%29.86 "HgN/A
2:20 AM64 °FPassing clouds.14 mph88%29.86 "HgN/A
1:20 AM64 °FPassing clouds.14 mph88%29.89 "HgN/A
Weather by CustomWeather, © 2016

See weather overviewHow to use our weather pages